Погода в Усть-Волме

Россия / Новгородская область     58°27′56″N   32°26′27″E
темп.,
°C
ветер,
м/с
пор.,
м/с
влажн.,
%
обл.,
%
осадки,
мм/ч
давл.,
гПа
погр.,
м
14 мая, пт
пт1400:00+12ю397199 0.0 1012552
03:00+8ююв289353 0.0 1013241
06:00+8ю38920 0.0 1013266
09:00+14ю47615 0.0 1013922
12:00+15ю4861100 0.0 10131200
15:00+19ю4748100 0.0 10122000
18:00+18ююв466454 0.3 1011890
21:00+13вюв26879 0.9 101095
15 мая, сб
сб1500:00+11вюв259215 0.0 101096
03:00+10вюв2793100 0.0 1009133
06:00+11вюв3892100 0.0 1008220
09:00+13в3695100 1.6 1008254
12:00+18ююв237661 1.0 1007847
15:00+19ююв237648 4.8 1005885
18:00+18ю368329 4.4 1004663
21:00+14ю129495 4.8 100412
16 мая, вс
вс1600:00+12ю229620 0.0 100419
03:00+11ю249898 0.0 100484
06:00+11юз149951 1.0 1005162
09:00+14зюз2391100 1.1 1006433
12:00+18юз237060 0.0 1007899
15:00+20зюз345991 0.3 10081255
18:00+20зюз346119 0.4 10081209
21:00+14юз239673 1.4 101067
17 мая, пн
пн1700:00+12ююз119621 0.0 101112
03:00+11ю229735 0.0 101226
06:00+12ююв23950 0.0 101285
09:00+17ююв24755 0.0 1013469
12:00+22ююв3553100 0.0 10121645
15:00+23юв4647100 0.0 10101988
18:00+22вюв4756100 0.0 1009831
21:00+18в51471100 0.3 1007593
18 мая, вт
вт1800:00+16вюв51691100 1.7 1005541
03:00+17юв51493100 2.2 1003605
06:00+15юз5895100 1.8 1004701
09:00+15юз3586100 1.8 1007700
12:00+17юз3469100 0.2 10081100
15:00+19юз236483 0.3 10091291
18:00+18зюз2265100 0.1 1009392
21:00+14ссз1182100 0.1 100912